Havre, MT

8:48 PM MST on February 12, 2016 (GMT -0700)
Havre City-County

Weather History for KHVR - August, 2014

Change the Weather History Date:

Wednesday, August 27, 2014

  Actual Average Record
Temperature  
Mean Temperature 70 °F 64 °F  
Max Temperature 90 °F 80 °F 99 °F (2001)
Min Temperature 49 °F 49 °F 31 °F (1911)
Degree Days  
Heating Degree Days 0 3  
Month to date heating degree days 42 39  
Since 1 June heating degree days 217 202  
Since 1 July heating degree days 42 69  
Cooling Degree Days 5 3  
Month to date cooling degree days 169 139  
Year to date cooling degree days 383 360  
Since 1 June cooling degree days 376 349  
Growing Degree Days 19 (Base 50)    
Moisture  
Dew Point 48 °F    
Average Humidity 57    
Maximum Humidity 93    
Minimum Humidity 21    
Precipitation  
Precipitation 0.00 in 0.03 in 0.47 in (1960)
Month to date precipitation 2.65 0.97  
Year to date precipitation 9.29 8.53  
Snow  
Snow 0.00 in 0.00 in 0.00 in (1999)
Month to date snowfall 0.0 0.0  
Since 1 June snowfall 0.0 0.0  
Since 1 July snowfall 0.0 0.0  
Snow Depth 0.00 in    
Sea Level Pressure  
Sea Level Pressure 29.93 in    
Wind  
Wind Speed 8 mph (WSW)    
Max Wind Speed 22 mph    
Max Gust Speed 24 mph    
Visibility 10 miles    
Events      
T = Trace of Precipitation, MM = Missing Value Source: NWS Daily Summary

Daily Weather History Graph

Daily Weather History Graph

Search for Another Location

Airport or City:

Trip Planner

Search our weather history database for the weather conditions in past years. The results will help you decide how hot, cold, wet, or windy it might be!

Date:

Astronomy

Aug. 27, 2014 Rise Set
Actual Time 6:29 AM MDT 8:10 PM MDT
Civil Twilight 5:56 AM MDT 8:43 PM MDT
Nautical Twilight 5:15 AM MDT 9:23 PM MDT
Astronomical Twilight 4:31 AM MDT 10:08 PM MDT
Moon 8:42 AM MDT (8/27) 8:49 PM MDT (8/27)
Length of Visible Light 14h 47m
Length of Day
13h 41m
Waxing Crescent, 4% of the Moon is Illuminated
Aug 27
Waxing Crescent
Sep 2
First Quarter
Sep 8
Full
Sep 15
Last Quarter
Sep 24
New

Hourly Weather History & Observations

Time (MDT) Temp. Dew Point Humidity Pressure Visibility Wind Dir Wind Speed Gust Speed Precip Events Conditions
12:53 AM 61.0 °F 46.0 °F 58% 30.01 in 10.0 mi Calm Calm - N/A   Clear
1:53 AM 62.1 °F 44.1 °F 52% 30.00 in 10.0 mi Calm Calm - N/A   Clear
2:53 AM 51.1 °F 46.9 °F 86% 29.98 in 10.0 mi West 5.8 mph - N/A   Clear
3:53 AM 50.0 °F 46.9 °F 89% 29.98 in 10.0 mi South 3.5 mph - N/A   Clear
4:53 AM 48.9 °F 46.0 °F 90% 29.98 in 10.0 mi SW 3.5 mph - N/A   Clear
5:53 AM 50.0 °F 46.0 °F 86% 29.98 in 10.0 mi Calm Calm - N/A   Clear
6:53 AM 51.1 °F 46.9 °F 86% 29.99 in 10.0 mi WSW 4.6 mph - N/A   Clear
7:53 AM 55.9 °F 50.0 °F 80% 29.99 in 10.0 mi SW 4.6 mph - N/A   Clear
8:53 AM 64.9 °F 51.1 °F 61% 29.99 in 10.0 mi SW 10.4 mph - N/A   Clear
9:53 AM 72.0 °F 48.0 °F 43% 29.98 in 10.0 mi SW 15.0 mph - N/A   Clear
10:53 AM 75.9 °F 48.9 °F 38% 29.96 in 10.0 mi SW 15.0 mph - N/A   Clear
11:53 AM 78.1 °F 48.9 °F 36% 29.95 in 10.0 mi SW 18.4 mph - N/A   Clear
12:53 PM 81.0 °F 48.0 °F 31% 29.92 in 10.0 mi SW 18.4 mph 24.2 mph N/A   Clear
1:53 PM 84.9 °F 46.0 °F 26% 29.90 in 10.0 mi West 11.5 mph 24.2 mph N/A   Clear
2:53 PM 87.1 °F 45.0 °F 23% 29.90 in 10.0 mi West 10.4 mph 20.7 mph N/A   Clear
3:53 PM 88.0 °F 45.0 °F 22% 29.88 in 10.0 mi West 12.7 mph - N/A   Clear
4:53 PM 89.1 °F 45.0 °F 22% 29.87 in 10.0 mi WSW 16.1 mph - N/A   Clear
5:53 PM 88.0 °F 45.0 °F 22% 29.86 in 10.0 mi NW 5.8 mph - N/A   Partly Cloudy
6:53 PM 86.0 °F 45.0 °F 24% 29.86 in 10.0 mi NW 6.9 mph - N/A   Partly Cloudy
7:53 PM 82.0 °F 48.9 °F 31% 29.86 in 10.0 mi West 3.5 mph - N/A   Partly Cloudy
8:53 PM 70.0 °F 53.1 °F 55% 29.88 in 10.0 mi North - - N/A   Scattered Clouds
9:53 PM 66.9 °F 54.0 °F 63% 29.88 in 10.0 mi South 9.2 mph - N/A   Mostly Cloudy
10:53 PM 63.0 °F 54.0 °F 72% 29.88 in 10.0 mi WSW 4.6 mph - N/A   Partly Cloudy
11:53 PM 60.1 °F 54.0 °F 80% 29.88 in 10.0 mi SW 4.6 mph - N/A   Clear